Home > Weather > Mackay > Past weeks

Flag for Australia Past Weather in Mackay, Queensland, Australia — Yesterday and Last 2 Weeks

Now
74 °F

Overcast.


Feels Like: 76 °F
Forecast: 66 / 80 °F
Wind: 7 mph from East

Location: Mackay Mo

Current Time: May 29, 2016 at 9:42:29 PM

Latest Report: May 29, 2016 at 9:00 PM


Visibility: N/A

Pressure: 30.10 "Hg

Humidity: 73%

Dew Point: 65 °F

Location of MackayLocation

Past Weather in Mackay — Graph

°F

Mackay Temperature Yesterday

Maximum temperature yesterday: 80 °F (at 3:00 PM)
Minimum temperature yesterday: 67 °F (at 6:00 AM)
Average temperature yesterday: 74 °F

High & Low Weather Summary for the Past Weeks

 TemperatureHumidityPressure
High85 °F (May 27, 1:00 PM)98% (May 26, 3:00 AM)30.15 "Hg (May 26, 3:00 AM)
Low63 °F (May 17, 6:00 AM)41% (May 29, 10:00 AM)29.79 "Hg (May 27, 3:00 PM)
Average73 °F81%30.01 "Hg
* Reported May 14 7:00 PM — May 29 7:00 PM, Mackay, Weather by CustomWeather, © 2016

Note: Actual official high and low records may vary slightly from our data, if they occured in-between our weather recording intervals... More about our weather records

Advertising

Mackay Weather History for the Previous 24 Hours

Scroll right to see more
 ConditionsComfort  
Time TempWeatherWind HumidityBarometerVisibility
7:00 PM
Sun, May 29
74 °FMild.8 mph75%30.06 "HgN/A
6:00 PM72 °FMild.8 mph78%30.04 "HgN/A
4:00 PM74 °FMild.8 mph68%30.02 "HgN/A
3:00 PM75 °FMild.9 mph64%30.01 "HgN/A
1:00 PM76 °FMild.12 mph53%30.02 "HgN/A
12:00 PM75 °FMild.10 mph48%30.04 "HgN/A
10:00 AM73 °FMild.12 mph41%30.09 "HgN/A
9:00 AM71 °FMild.10 mph52%30.09 "HgN/A
7:00 AM63 °FMild.8 mph81%30.04 "HgN/A
6:00 AM63 °FMild.8 mph83%30.01 "HgN/A
4:00 AM65 °FMild.9 mph89%29.98 "HgN/A
3:00 AM66 °FMild.8 mph89%29.98 "HgN/A
1:00 AM67 °FMild.8 mph90%29.99 "HgN/A
12:00 AM68 °FMild.7 mph90%29.99 "HgN/A
10:00 PM
Sat, May 28
70 °FMild.6 mph85%30.00 "HgN/A
9:00 PM72 °FPassing clouds.3 mph79%29.99 "HgN/A
Weather by CustomWeather, © 2016

See weather overviewHow to use our weather pages